When you browse on this site, cookies collect data to enhance your experience and personalize the content and advertising you see.
Visit our Privacy Policy to learn more. By continuing to use the site, you agree to this use of cookies and data.
  • In Czech Republic
  • List of Countries
  • For 7 days
  • Water Temperature
  • Weather Map
  • Weather Widgets
  • user-avatar
    Login

    Hourly Weather Djelfa

    Today, 21 January, Tuesday

    Time Temperature Precipitation Wind Pressure Humidity
    00:00 +2°C° 0 mm 12 mps 658 mmHg 52%
    01:00 +2°C° 0 mm 11 mps 658 mmHg 51%
    02:00 +1°C° 0 mm 10 mps 658 mmHg 50%
    03:00 +1°C° 0 mm 9 mps 658 mmHg 49%
    04:00 +1°C° 0 mm 9 mps 658 mmHg 49%
    05:00 +1°C° 0 mm 9 mps 658 mmHg 49%
    06:00 0°C° 0 mm 9 mps 658 mmHg 49%
    07:00 +1°C° 0 mm 9 mps 659 mmHg 48%
    08:00 +2°C° 0 mm 9 mps 659 mmHg 46%
    09:00 +2°C° 0 mm 8 mps 660 mmHg 45%
    10:00 +4°C° 0 mm 8 mps 660 mmHg 43%
    11:00 +6°C° 0 mm 8 mps 661 mmHg 41%
    12:00 +7°C° 0 mm 8 mps 661 mmHg 39%
    13:00 +7°C° 0 mm 8 mps 661 mmHg 38%
    14:00 +7°C° 0 mm 8 mps 661 mmHg 38%
    15:00 +7°C° 0 mm 8 mps 661 mmHg 37%
    16:00 +7°C° 0 mm 6 mps 661 mmHg 42%
    17:00 +6°C° 0 mm 5 mps 661 mmHg 46%
    18:00 +6°C° 0 mm 4 mps 661 mmHg 50%
    19:00 +5°C° 0 mm 4 mps 661 mmHg 50%
    20:00 +5°C° 0 mm 3 mps 662 mmHg 50%
    21:00 +5°C° 0 mm 3 mps 662 mmHg 49%
    22:00 +5°C° 0 mm 3 mps 662 mmHg 50%
    23:00 +5°C° 0 mm 4 mps 662 mmHg 51%

    Tomorrow, 22 January, Wednesday

    Time Temperature Precipitation Wind Pressure Humidity
    00:00 +4°C° 0 mm 4 mps 662 mmHg 52%
    01:00 +3°C° 0 mm 5 mps 662 mmHg 54%
    02:00 +3°C° 0 mm 5 mps 662 mmHg 55%
    03:00 +3°C° 0 mm 5 mps 662 mmHg 56%
    04:00 +3°C° 0 mm 5 mps 662 mmHg 58%
    05:00 +2°C° 0 mm 5 mps 662 mmHg 59%
    06:00 +2°C° 0 mm 5 mps 662 mmHg 60%
    07:00 +3°C° 0 mm 6 mps 663 mmHg 57%
    08:00 +5°C° 0 mm 7 mps 664 mmHg 53%
    09:00 +6°C° 0 mm 8 mps 664 mmHg 49%
    10:00 +7°C° 0 mm 9 mps 664 mmHg 46%
    11:00 +8°C° 0 mm 10 mps 664 mmHg 44%
    12:00 +11°C° 0 mm 11 mps 663 mmHg 41%
    13:00 +9°C° 0 mm 11 mps 663 mmHg 40%
    14:00 +9°C° 0 mm 11 mps 663 mmHg 39%
    15:00 +9°C° 0 mm 11 mps 662 mmHg 38%
    16:00 +8°C° 0 mm 9 mps 663 mmHg 42%
    17:00 +7°C° 0 mm 8 mps 663 mmHg 46%
    18:00 +6°C° 0 mm 7 mps 663 mmHg 50%
    19:00 +5°C° 0 mm 6 mps 664 mmHg 55%
    20:00 +6°C° 0 mm 4 mps 664 mmHg 60%
    21:00 +6°C° 0 mm 2 mps 664 mmHg 64%
    22:00 +6°C° 0 mm 1 mps 664 mmHg 67%
    23:00 +5°C° 0 mm 1 mps 664 mmHg 69%

    Day after tomorrow, 23 January, Thursday

    Time Temperature Precipitation Wind Pressure Humidity
    00:00 +4°C° 0 mm 0 mps 664 mmHg 71%
    01:00 +3°C° 0 mm 0 mps 664 mmHg 71%
    02:00 +4°C° 0 mm 1 mps 664 mmHg 72%
    03:00 +4°C° 0 mm 1 mps 663 mmHg 73%
    04:00 +4°C° 0 mm 1 mps 663 mmHg 74%
    05:00 +3°C° 0 mm 1 mps 663 mmHg 76%
    06:00 +3°C° 0 mm 1 mps 663 mmHg 77%
    07:00 +5°C° 0 mm 1 mps 664 mmHg 70%
    08:00 +6°C° 0 mm 1 mps 665 mmHg 62%
    09:00 +8°C° 0 mm 1 mps 666 mmHg 54%
    10:00 +9°C° 0 mm 1 mps 666 mmHg 49%
    11:00 +10°C° 0 mm 1 mps 666 mmHg 44%
    12:00 +10°C° 0 mm 2 mps 666 mmHg 38%
    13:00 +10°C° 0 mm 2 mps 665 mmHg 37%
    14:00 +11°C° 0 mm 3 mps 665 mmHg 35%
    15:00 +11°C° 0 mm 3 mps 665 mmHg 33%
    16:00 +10°C° 0 mm 3 mps 665 mmHg 38%
    17:00 +7°C° 0 mm 4 mps 664 mmHg 44%
    18:00 +6°C° 0 mm 4 mps 664 mmHg 49%
    19:00 +7°C° 0 mm 3 mps 664 mmHg 50%
    20:00 +5°C° 0 mm 3 mps 665 mmHg 50%
    21:00 +5°C° 0 mm 3 mps 665 mmHg 51%
    22:00 +5°C° 0 mm 3 mps 665 mmHg 51%
    23:00 +4°C° 0 mm 3 mps 665 mmHg 51%

    24 January, Friday

    Time Temperature Precipitation Wind Pressure Humidity
    00:00 +4°C° 0 mm 3 mps 665 mmHg 51%
    01:00 +4°C° 0 mm 3 mps 665 mmHg 53%
    02:00 +5°C° 0 mm 2 mps 665 mmHg 54%
    03:00 +4°C° 0 mm 2 mps 665 mmHg 55%
    04:00 +4°C° 0 mm 2 mps 664 mmHg 55%
    05:00 +4°C° 0 mm 2 mps 664 mmHg 56%
    06:00 +4°C° 0 mm 2 mps 664 mmHg 57%
    07:00 +5°C° 0 mm 2 mps 665 mmHg 54%
    08:00 +6°C° 0 mm 2 mps 666 mmHg 51%
    09:00 +8°C° 0 mm 2 mps 666 mmHg 48%
    10:00 +9°C° 0 mm 2 mps 666 mmHg 42%
    11:00 +10°C° 0 mm 3 mps 666 mmHg 37%
    12:00 +11°C° 0 mm 3 mps 666 mmHg 32%
    13:00 +11°C° 0 mm 4 mps 666 mmHg 33%
    14:00 +12°C° 0 mm 4 mps 665 mmHg 34%
    15:00 +12°C° 0 mm 5 mps 665 mmHg 35%
    16:00 +11°C° 0 mm 4 mps 665 mmHg 39%
    17:00 +8°C° 0 mm 4 mps 665 mmHg 44%
    18:00 +8°C° 0 mm 3 mps 664 mmHg 48%
    19:00 +8°C° 0 mm 3 mps 665 mmHg 50%
    20:00 +6°C° 0 mm 4 mps 665 mmHg 52%
    21:00 +6°C° 0 mm 4 mps 665 mmHg 54%
    22:00 +6°C° 0 mm 5 mps 665 mmHg 56%
    23:00 +5°C° 0 mm 5 mps 664 mmHg 57%

    25 January, Saturday

    Time Temperature Precipitation Wind Pressure Humidity
    00:00 +4°C° 0 mm 6 mps 664 mmHg 59%
    01:00 +4°C° 0 mm 6 mps 664 mmHg 58%
    02:00 +5°C° 0 mm 5 mps 664 mmHg 58%
    03:00 +5°C° 0 mm 5 mps 664 mmHg 58%
    04:00 +5°C° 0 mm 5 mps 663 mmHg 58%
    05:00 +4°C° 0 mm 4 mps 663 mmHg 58%
    06:00 +4°C° 0 mm 4 mps 663 mmHg 59%
    07:00 +5°C° 0 mm 3 mps 664 mmHg 55%
    08:00 +7°C° 0 mm 3 mps 664 mmHg 52%
    09:00 +8°C° 0 mm 3 mps 664 mmHg 49%
    10:00 +8°C° 0.1 mm 4 mps 664 mmHg 50%
    11:00 +8°C° 0.1 mm 5 mps 664 mmHg 50%
    12:00 +9°C° 0.1 mm 6 mps 664 mmHg 51%
    13:00 +9°C° 0.4 mm 6 mps 663 mmHg 56%
    14:00 +9°C° 0.4 mm 7 mps 663 mmHg 61%
    15:00 +9°C° 0.4 mm 7 mps 662 mmHg 66%
    16:00 +8°C° 0.6 mm 5 mps 662 mmHg 70%
    17:00 +7°C° 0.6 mm 4 mps 662 mmHg 75%
    18:00 +7°C° 0.6 mm 2 mps 662 mmHg 79%
    19:00 +7°C° 0.2 mm 2 mps 663 mmHg 79%
    20:00 +7°C° 0.2 mm 1 mps 663 mmHg 79%
    21:00 +7°C° 0.2 mm 1 mps 663 mmHg 79%
    22:00 +5°C° 0.1 mm 2 mps 663 mmHg 82%
    23:00 +4°C° 0.1 mm 3 mps 663 mmHg 85%

    26 January, Sunday

    Time Temperature Precipitation Wind Pressure Humidity
    00:00 +2°C° 0.1 mm 5 mps 663 mmHg 89%
    01:00 +2°C° 0 mm 6 mps 663 mmHg 90%
    02:00 +2°C° 0 mm 7 mps 663 mmHg 91%
    03:00 +1°C° 0 mm 8 mps 663 mmHg 93%
    04:00 +1°C° 0 mm 8 mps 663 mmHg 93%
    05:00 +1°C° 0 mm 8 mps 663 mmHg 93%
    06:00 +2°C° 0 mm 7 mps 663 mmHg 93%
    07:00 +1°C° 0 mm 8 mps 664 mmHg 90%
    08:00 +2°C° 0 mm 8 mps 665 mmHg 87%
    09:00 +2°C° 0 mm 8 mps 665 mmHg 83%
    10:00 +4°C° 0 mm 8 mps 665 mmHg 80%
    11:00 +3°C° 0 mm 9 mps 665 mmHg 78%
    12:00 +5°C° 0 mm 9 mps 665 mmHg 75%
    13:00 +5°C° 0.1 mm 9 mps 665 mmHg 72%
    14:00 +6°C° 0.1 mm 9 mps 665 mmHg 69%
    15:00 +6°C° 0.1 mm 9 mps 665 mmHg 67%
    16:00 +5°C° 0.1 mm 9 mps 665 mmHg 72%
    17:00 +5°C° 0.1 mm 8 mps 666 mmHg 78%
    18:00 +4°C° 0.1 mm 7 mps 666 mmHg 83%
    19:00 +3°C° 0.1 mm 7 mps 666 mmHg 85%
    20:00 +3°C° 0.1 mm 6 mps 666 mmHg 88%
    21:00 +3°C° 0.1 mm 6 mps 667 mmHg 90%
    22:00 +2°C° 0 mm 6 mps 667 mmHg 92%
    23:00 +2°C° 0 mm 5 mps 667 mmHg 94%
    Show more